Year,Month,Day,Hour,Minute,Value (Times are PST for temperature in C)
2012,11,26,00,00,2.30
2012,11,26,00,01,2.30
2012,11,26,00,02,2.30
2012,11,26,00,03,2.30
2012,11,26,00,04,2.30
2012,11,26,00,05,2.30
2012,11,26,00,06,2.30
2012,11,26,00,07,2.30
2012,11,26,00,08,2.30
2012,11,26,00,09,2.30
2012,11,26,00,10,2.30
2012,11,26,00,11,2.30
2012,11,26,00,12,2.30
2012,11,26,00,13,2.20
2012,11,26,00,14,2.20
2012,11,26,00,15,2.20
2012,11,26,00,16,2.20
2012,11,26,00,17,2.20
2012,11,26,00,18,2.20
2012,11,26,00,19,2.10
2012,11,26,00,20,2.10
2012,11,26,00,21,2.10
2012,11,26,00,22,2.10
2012,11,26,00,23,2.10
2012,11,26,00,24,2.10
2012,11,26,00,25,2.10
2012,11,26,00,26,2.10
2012,11,26,00,27,2.10
2012,11,26,00,28,2.10
2012,11,26,00,29,2.00
2012,11,26,00,30,2.10
2012,11,26,00,31,2.10
2012,11,26,00,32,2.10
2012,11,26,00,33,2.10
2012,11,26,00,34,2.10
2012,11,26,00,35,2.10
2012,11,26,00,36,2.10
2012,11,26,00,37,2.10
2012,11,26,00,38,2.10
2012,11,26,00,39,2.10
2012,11,26,00,40,2.10
2012,11,26,00,41,2.10
2012,11,26,00,42,2.10
2012,11,26,00,43,2.10
2012,11,26,00,44,2.10
2012,11,26,00,45,2.10
2012,11,26,00,46,2.20
2012,11,26,00,47,2.20
2012,11,26,00,48,2.20
2012,11,26,00,49,2.20
2012,11,26,00,50,2.20
2012,11,26,00,51,2.20
2012,11,26,00,52,2.20
2012,11,26,00,53,2.20
2012,11,26,00,54,2.20
2012,11,26,00,55,2.20
2012,11,26,00,56,2.10
2012,11,26,00,57,2.10
2012,11,26,00,58,2.00
2012,11,26,00,59,2.00
2012,11,26,01,00,2.00
2012,11,26,01,01,1.90
2012,11,26,01,02,1.90
2012,11,26,01,03,1.80
2012,11,26,01,04,1.80
2012,11,26,01,05,1.80
2012,11,26,01,06,1.80
2012,11,26,01,07,1.80
2012,11,26,01,08,1.80
2012,11,26,01,09,1.80
2012,11,26,01,10,1.80
2012,11,26,01,11,1.80
2012,11,26,01,12,1.80
2012,11,26,01,13,1.80
2012,11,26,01,14,1.80
2012,11,26,01,15,1.80
2012,11,26,01,16,1.80
2012,11,26,01,17,1.80
2012,11,26,01,18,1.80
2012,11,26,01,19,1.80
2012,11,26,01,20,1.80
2012,11,26,01,21,1.80
2012,11,26,01,22,1.80
2012,11,26,01,23,1.80
2012,11,26,01,24,1.80
2012,11,26,01,25,1.80
2012,11,26,01,26,1.80
2012,11,26,01,27,1.70
2012,11,26,01,28,1.60
2012,11,26,01,29,1.50
2012,11,26,01,30,1.50
2012,11,26,01,31,1.50
2012,11,26,01,32,1.50
2012,11,26,01,33,1.40
2012,11,26,01,34,1.40
2012,11,26,01,35,1.40
2012,11,26,01,36,1.40
2012,11,26,01,37,1.40
2012,11,26,01,38,1.40
2012,11,26,01,39,1.40
2012,11,26,01,40,1.40
2012,11,26,01,41,1.40
2012,11,26,01,42,1.40
2012,11,26,01,43,1.40
2012,11,26,01,44,1.40
2012,11,26,01,45,1.30
2012,11,26,01,46,1.30
2012,11,26,01,47,1.30
2012,11,26,01,48,1.30
2012,11,26,01,49,1.30
2012,11,26,01,50,1.30
2012,11,26,01,51,1.30
2012,11,26,01,52,1.30
2012,11,26,01,53,1.30
2012,11,26,01,54,1.30
2012,11,26,01,55,1.30
2012,11,26,01,56,1.30
2012,11,26,01,57,1.30
2012,11,26,01,58,1.30
2012,11,26,01,59,1.30
2012,11,26,02,00,1.30
2012,11,26,02,01,1.30
2012,11,26,02,02,1.30
2012,11,26,02,03,1.30
2012,11,26,02,04,1.30
2012,11,26,02,05,1.30
2012,11,26,02,06,1.40
2012,11,26,02,07,1.50
2012,11,26,02,08,1.50
2012,11,26,02,09,1.50
2012,11,26,02,10,1.60
2012,11,26,02,11,1.60
2012,11,26,02,12,1.60
2012,11,26,02,13,1.60
2012,11,26,02,14,1.60
2012,11,26,02,15,1.60
2012,11,26,02,16,1.60
2012,11,26,02,17,1.60
2012,11,26,02,18,1.60
2012,11,26,02,19,1.60
2012,11,26,02,20,1.60
2012,11,26,02,21,1.60
2012,11,26,02,22,1.60
2012,11,26,02,23,1.60
2012,11,26,02,24,1.60
2012,11,26,02,25,1.60
2012,11,26,02,26,1.60
2012,11,26,02,27,1.60
2012,11,26,02,28,1.60
2012,11,26,02,29,1.60
2012,11,26,02,30,1.60
2012,11,26,02,31,1.60
2012,11,26,02,32,1.60
2012,11,26,02,33,1.60
2012,11,26,02,34,1.60
2012,11,26,02,35,1.60
2012,11,26,02,36,1.60
2012,11,26,02,37,1.60
2012,11,26,02,38,1.60
2012,11,26,02,39,1.60
2012,11,26,02,40,1.60
2012,11,26,02,41,1.60
2012,11,26,02,42,1.60
2012,11,26,02,43,1.60
2012,11,26,02,44,1.60
2012,11,26,02,45,1.60
2012,11,26,02,46,1.60
2012,11,26,02,47,1.50
2012,11,26,02,48,1.50
2012,11,26,02,49,1.40
2012,11,26,02,50,1.30
2012,11,26,02,51,1.30
2012,11,26,02,52,1.30
2012,11,26,02,53,1.30
2012,11,26,02,54,1.30
2012,11,26,02,55,1.30
2012,11,26,02,56,1.30
2012,11,26,02,57,1.30
2012,11,26,02,58,1.30
2012,11,26,02,59,1.30
2012,11,26,03,00,1.30
2012,11,26,03,01,1.30
2012,11,26,03,02,1.30
2012,11,26,03,03,1.30
2012,11,26,03,04,1.40
2012,11,26,03,05,1.40
2012,11,26,03,06,1.50
2012,11,26,03,07,1.50
2012,11,26,03,08,1.60
2012,11,26,03,09,1.60
2012,11,26,03,10,1.50
2012,11,26,03,11,1.50
2012,11,26,03,12,1.50
2012,11,26,03,13,1.50
2012,11,26,03,14,1.50
2012,11,26,03,15,1.50
2012,11,26,03,16,1.50
2012,11,26,03,17,1.50
2012,11,26,03,18,1.50
2012,11,26,03,19,1.50
2012,11,26,03,20,1.50
2012,11,26,03,21,1.50
2012,11,26,03,22,1.40
2012,11,26,03,23,1.40
2012,11,26,03,24,1.40
2012,11,26,03,25,1.40
2012,11,26,03,26,1.40
2012,11,26,03,27,1.30
2012,11,26,03,28,1.30
2012,11,26,03,29,1.30
2012,11,26,03,30,1.30
2012,11,26,03,31,1.30
2012,11,26,03,32,1.30
2012,11,26,03,33,1.30
2012,11,26,03,34,1.30
2012,11,26,03,35,1.30
2012,11,26,03,36,1.30
2012,11,26,03,37,1.20
2012,11,26,03,38,1.20
2012,11,26,03,39,1.20
2012,11,26,03,40,1.20
2012,11,26,03,41,1.20
2012,11,26,03,42,1.20
2012,11,26,03,43,1.30
2012,11,26,03,44,1.30
2012,11,26,03,45,1.30
2012,11,26,03,46,1.30
2012,11,26,03,47,1.30
2012,11,26,03,48,1.30
2012,11,26,03,49,1.40
2012,11,26,03,50,1.40
2012,11,26,03,51,1.40
2012,11,26,03,52,1.40
2012,11,26,03,53,1.50
2012,11,26,03,54,1.50
2012,11,26,03,55,1.50
2012,11,26,03,56,1.50
2012,11,26,03,57,1.50
2012,11,26,03,58,1.50
2012,11,26,03,59,1.50
2012,11,26,04,00,1.40
2012,11,26,04,01,1.40
2012,11,26,04,02,1.30
2012,11,26,04,03,1.30
2012,11,26,04,04,1.30
2012,11,26,04,05,1.30
2012,11,26,04,06,1.40
2012,11,26,04,07,1.40
2012,11,26,04,08,1.50
2012,11,26,04,09,1.50
2012,11,26,04,10,1.60
2012,11,26,04,11,1.60
2012,11,26,04,12,1.60
2012,11,26,04,13,1.60
2012,11,26,04,14,1.60
2012,11,26,04,15,1.70
2012,11,26,04,16,1.70
2012,11,26,04,17,1.70
2012,11,26,04,18,1.70
2012,11,26,04,19,1.70
2012,11,26,04,20,1.70
2012,11,26,04,21,1.70
2012,11,26,04,22,1.70
2012,11,26,04,23,1.70
2012,11,26,04,24,1.70
2012,11,26,04,25,1.70
2012,11,26,04,26,1.70
2012,11,26,04,27,1.70
2012,11,26,04,28,1.80
2012,11,26,04,29,1.80
2012,11,26,04,30,1.80
2012,11,26,04,31,1.70
2012,11,26,04,32,1.70
2012,11,26,04,33,1.70
2012,11,26,04,34,1.70
2012,11,26,04,35,1.70
2012,11,26,04,36,1.70
2012,11,26,04,37,1.70
2012,11,26,04,38,1.80
2012,11,26,04,39,1.80
2012,11,26,04,40,1.80
2012,11,26,04,41,1.80
2012,11,26,04,42,1.80
2012,11,26,04,43,1.80
2012,11,26,04,44,1.80
2012,11,26,04,45,1.80
2012,11,26,04,46,1.80
2012,11,26,04,47,1.80
2012,11,26,04,48,1.80
2012,11,26,04,49,1.80
2012,11,26,04,50,1.80
2012,11,26,04,51,1.80
2012,11,26,04,52,1.80
2012,11,26,04,53,1.80
2012,11,26,04,54,1.80
2012,11,26,04,55,1.80
2012,11,26,04,56,1.80
2012,11,26,04,57,1.70
2012,11,26,04,58,1.70
2012,11,26,04,59,1.70
2012,11,26,05,00,1.70
2012,11,26,05,01,1.70
2012,11,26,05,02,1.70
2012,11,26,05,03,1.70
2012,11,26,05,04,1.70
2012,11,26,05,05,1.70
2012,11,26,05,06,1.70
2012,11,26,05,07,1.70
2012,11,26,05,08,1.70
2012,11,26,05,09,1.60
2012,11,26,05,10,1.60
2012,11,26,05,11,1.60
2012,11,26,05,12,1.60
2012,11,26,05,13,1.60
2012,11,26,05,14,1.50
2012,11,26,05,15,1.50
2012,11,26,05,16,1.40
2012,11,26,05,17,1.40
2012,11,26,05,18,1.40
2012,11,26,05,19,1.40
2012,11,26,05,20,1.40
2012,11,26,05,21,1.30
2012,11,26,05,22,1.30
2012,11,26,05,23,1.30
2012,11,26,05,24,1.40
2012,11,26,05,25,1.30
2012,11,26,05,26,1.30
2012,11,26,05,27,1.30
2012,11,26,05,28,1.30
2012,11,26,05,29,1.30
2012,11,26,05,30,1.30
2012,11,26,05,31,1.40
2012,11,26,05,32,1.40
2012,11,26,05,33,1.50
2012,11,26,05,34,1.50
2012,11,26,05,35,1.60
2012,11,26,05,36,1.60
2012,11,26,05,37,1.60
2012,11,26,05,38,1.60
2012,11,26,05,39,1.60
2012,11,26,05,40,1.60
2012,11,26,05,41,1.60
2012,11,26,05,42,1.60
2012,11,26,05,43,1.60
2012,11,26,05,44,1.50
2012,11,26,05,45,1.50
2012,11,26,05,46,1.50
2012,11,26,05,47,1.50
2012,11,26,05,48,1.50
2012,11,26,05,49,1.50
2012,11,26,05,50,1.50
2012,11,26,05,51,1.50
2012,11,26,05,52,1.50
2012,11,26,05,53,1.50
2012,11,26,05,54,1.50
2012,11,26,05,55,1.50
2012,11,26,05,56,1.40
2012,11,26,05,57,1.30
2012,11,26,05,58,1.30
2012,11,26,05,59,1.30
2012,11,26,06,00,1.30
2012,11,26,06,01,1.30
2012,11,26,06,02,1.20
2012,11,26,06,03,1.20
2012,11,26,06,04,1.20
2012,11,26,06,05,1.10
2012,11,26,06,06,1.10
2012,11,26,06,07,1.10
2012,11,26,06,08,1.00
2012,11,26,06,09,1.00
2012,11,26,06,10,1.00
2012,11,26,06,11,1.00
2012,11,26,06,12,1.00
2012,11,26,06,13,0.90
2012,11,26,06,14,0.90
2012,11,26,06,15,0.90
2012,11,26,06,16,0.90
2012,11,26,06,17,0.80
2012,11,26,06,18,0.80
2012,11,26,06,19,0.80
2012,11,26,06,20,0.80
2012,11,26,06,21,0.80
2012,11,26,06,22,0.80
2012,11,26,06,23,0.70
2012,11,26,06,24,0.70
2012,11,26,06,25,0.80
2012,11,26,06,26,0.80
2012,11,26,06,27,0.80
2012,11,26,06,28,0.80
2012,11,26,06,29,0.80
2012,11,26,06,30,0.80
2012,11,26,06,31,0.80
2012,11,26,06,32,0.90
2012,11,26,06,33,0.90
2012,11,26,06,34,0.90
2012,11,26,06,35,0.90
2012,11,26,06,36,0.90
2012,11,26,06,37,0.90
2012,11,26,06,38,0.90
2012,11,26,06,39,0.90
2012,11,26,06,40,0.90
2012,11,26,06,41,0.90
2012,11,26,06,42,0.80
2012,11,26,06,43,0.80
2012,11,26,06,44,0.80
2012,11,26,06,45,0.80
2012,11,26,06,46,0.80
2012,11,26,06,47,0.70
2012,11,26,06,48,0.70
2012,11,26,06,49,0.70
2012,11,26,06,50,0.70
2012,11,26,06,51,0.70
2012,11,26,06,52,0.70
2012,11,26,06,53,0.70
2012,11,26,06,54,0.70
2012,11,26,06,55,0.70
2012,11,26,06,56,0.80
2012,11,26,06,57,0.80
2012,11,26,06,58,0.80
2012,11,26,06,59,0.90
2012,11,26,07,00,0.90
2012,11,26,07,01,0.90
2012,11,26,07,02,0.90
2012,11,26,07,03,1.00
2012,11,26,07,04,0.90
2012,11,26,07,05,0.90
2012,11,26,07,06,1.00
2012,11,26,07,07,1.00
2012,11,26,07,08,1.00
2012,11,26,07,09,1.10
2012,11,26,07,10,1.10
2012,11,26,07,11,1.20
2012,11,26,07,12,1.20
2012,11,26,07,13,1.20
2012,11,26,07,14,1.30
2012,11,26,07,15,1.30
2012,11,26,07,16,1.20
2012,11,26,07,17,1.20
2012,11,26,07,18,1.20
2012,11,26,07,19,1.20
2012,11,26,07,20,1.10
2012,11,26,07,21,1.10
2012,11,26,07,22,1.10
2012,11,26,07,23,1.10
2012,11,26,07,24,1.10
2012,11,26,07,25,1.10
2012,11,26,07,26,1.20
2012,11,26,07,27,1.20
2012,11,26,07,28,1.20
2012,11,26,07,29,1.30
2012,11,26,07,30,1.30
2012,11,26,07,31,1.30
2012,11,26,07,32,1.30
2012,11,26,07,33,1.30
2012,11,26,07,34,1.30
2012,11,26,07,35,1.20
2012,11,26,07,36,1.20
2012,11,26,07,37,1.20
2012,11,26,07,38,1.20
2012,11,26,07,39,1.20
2012,11,26,07,40,1.20
2012,11,26,07,41,1.30
2012,11,26,07,42,1.30
2012,11,26,07,43,1.20
2012,11,26,07,44,1.20
2012,11,26,07,45,1.10
2012,11,26,07,46,1.20
2012,11,26,07,47,1.20
2012,11,26,07,48,1.20
2012,11,26,07,49,1.20
2012,11,26,07,50,1.20
2012,11,26,07,51,1.10
2012,11,26,07,52,1.10
2012,11,26,07,53,1.00
2012,11,26,07,54,0.90
2012,11,26,07,55,0.90
2012,11,26,07,56,0.90
2012,11,26,07,57,0.90
2012,11,26,07,58,0.90
2012,11,26,07,59,1.00
2012,11,26,08,00,1.00
2012,11,26,08,01,1.00
2012,11,26,08,02,1.10
2012,11,26,08,03,1.10
2012,11,26,08,04,1.10
2012,11,26,08,05,1.20
2012,11,26,08,06,1.20
2012,11,26,08,07,1.20
2012,11,26,08,08,1.20
2012,11,26,08,09,1.20
2012,11,26,08,10,1.20
2012,11,26,08,11,1.20
2012,11,26,08,12,1.20
2012,11,26,08,13,1.20
2012,11,26,08,14,1.20
2012,11,26,08,15,1.20
2012,11,26,08,16,1.20
2012,11,26,08,17,1.20
2012,11,26,08,18,1.20
2012,11,26,08,19,1.20
2012,11,26,08,20,1.20
2012,11,26,08,21,1.30
2012,11,26,08,22,1.30
2012,11,26,08,23,1.30
2012,11,26,08,24,1.30
2012,11,26,08,25,1.30
2012,11,26,08,26,1.30
2012,11,26,08,27,1.30
2012,11,26,08,28,1.30
2012,11,26,08,29,1.30
2012,11,26,08,30,1.30
2012,11,26,08,31,1.30
2012,11,26,08,32,1.40
2012,11,26,08,33,1.50
2012,11,26,08,34,1.50
2012,11,26,08,35,1.60
2012,11,26,08,36,1.60
2012,11,26,08,37,1.60
2012,11,26,08,38,1.70
2012,11,26,08,39,1.70
2012,11,26,08,40,1.70
2012,11,26,08,41,1.70
2012,11,26,08,42,1.80
2012,11,26,08,43,1.80
2012,11,26,08,44,1.80
2012,11,26,08,45,1.80
2012,11,26,08,46,1.80
2012,11,26,08,47,1.80
2012,11,26,08,48,1.80
2012,11,26,08,49,1.80
2012,11,26,08,50,1.80
2012,11,26,08,51,1.90
2012,11,26,08,52,1.90
2012,11,26,08,53,1.90
2012,11,26,08,54,2.00
2012,11,26,08,55,2.00
2012,11,26,08,56,2.10
2012,11,26,08,57,2.10
2012,11,26,08,58,2.10
2012,11,26,08,59,2.20
2012,11,26,09,00,2.20
2012,11,26,09,01,2.20
2012,11,26,09,02,2.20
2012,11,26,09,03,2.20
2012,11,26,09,04,2.20
2012,11,26,09,05,2.20
2012,11,26,09,06,2.20
2012,11,26,09,07,2.20
2012,11,26,09,08,2.20
2012,11,26,09,09,2.20
2012,11,26,09,10,2.30
2012,11,26,09,11,2.30
2012,11,26,09,12,2.30
2012,11,26,09,13,2.30
2012,11,26,09,14,2.30
2012,11,26,09,15,2.30
2012,11,26,09,16,2.30
2012,11,26,09,17,2.30
2012,11,26,09,18,2.30
2012,11,26,09,19,2.30
2012,11,26,09,20,2.30
2012,11,26,09,21,2.30
2012,11,26,09,22,2.30
2012,11,26,09,23,2.30
2012,11,26,09,24,2.30
2012,11,26,09,25,2.30
2012,11,26,09,26,2.30
2012,11,26,09,27,2.30
2012,11,26,09,28,2.40
2012,11,26,09,29,2.40
2012,11,26,09,30,2.50
2012,11,26,09,31,2.50
2012,11,26,09,32,2.50
2012,11,26,09,33,2.50
2012,11,26,09,34,2.60
2012,11,26,09,35,2.60
2012,11,26,09,36,2.60
2012,11,26,09,37,2.60
2012,11,26,09,38,2.60
2012,11,26,09,39,2.60
2012,11,26,09,40,2.60
2012,11,26,09,41,2.60
2012,11,26,09,42,2.60
2012,11,26,09,43,2.60
2012,11,26,09,44,2.60
2012,11,26,09,45,2.60
2012,11,26,09,46,2.60
2012,11,26,09,47,2.60
2012,11,26,09,48,2.60
2012,11,26,09,49,2.70
2012,11,26,09,50,2.70
2012,11,26,09,51,2.70
2012,11,26,09,52,2.70
2012,11,26,09,53,2.70
2012,11,26,09,54,2.70
2012,11,26,09,55,2.70
2012,11,26,09,56,2.80
2012,11,26,09,57,2.80
2012,11,26,09,58,2.80
2012,11,26,09,59,2.80
2012,11,26,10,00,2.80
2012,11,26,10,01,2.90
2012,11,26,10,02,2.90
2012,11,26,10,03,2.90
2012,11,26,10,04,3.00
2012,11,26,10,05,3.00
2012,11,26,10,06,3.10
2012,11,26,10,07,3.10
2012,11,26,10,08,3.10
2012,11,26,10,09,3.20
2012,11,26,10,10,3.20
2012,11,26,10,11,3.20
2012,11,26,10,12,3.30
2012,11,26,10,13,3.30
2012,11,26,10,14,3.30
2012,11,26,10,15,3.30
2012,11,26,10,16,3.30
2012,11,26,10,17,3.30
2012,11,26,10,18,3.40
2012,11,26,10,19,3.40
2012,11,26,10,20,3.50
2012,11,26,10,21,3.50
2012,11,26,10,22,3.50
2012,11,26,10,23,3.50
2012,11,26,10,24,3.50
2012,11,26,10,25,3.60
2012,11,26,10,26,3.60
2012,11,26,10,27,3.60
2012,11,26,10,28,3.60
2012,11,26,10,29,3.60
2012,11,26,10,30,3.60
2012,11,26,10,31,3.60
2012,11,26,10,32,3.60
2012,11,26,10,33,3.70
2012,11,26,10,34,3.70
2012,11,26,10,35,3.70
2012,11,26,10,36,3.70
2012,11,26,10,37,3.80
2012,11,26,10,38,3.80
2012,11,26,10,39,3.80
2012,11,26,10,40,3.80
2012,11,26,10,41,3.90
2012,11,26,10,42,3.90
2012,11,26,10,43,3.90
2012,11,26,10,44,3.90
2012,11,26,10,45,4.00
2012,11,26,10,46,4.00
2012,11,26,10,47,4.10
2012,11,26,10,48,4.10
2012,11,26,10,49,4.10
2012,11,26,10,50,4.10
2012,11,26,10,51,4.20
2012,11,26,10,52,4.20
2012,11,26,10,53,4.20
2012,11,26,10,54,4.20
2012,11,26,10,55,4.30
2012,11,26,10,56,4.30
2012,11,26,10,57,4.30
2012,11,26,10,58,4.30
2012,11,26,10,59,4.30
2012,11,26,11,00,4.30
2012,11,26,11,01,4.30
2012,11,26,11,02,4.30
2012,11,26,11,03,4.30
2012,11,26,11,04,4.30
2012,11,26,11,05,4.30
2012,11,26,11,06,4.30
2012,11,26,11,07,4.30
2012,11,26,11,08,4.30
2012,11,26,11,09,4.30
2012,11,26,11,10,4.30
2012,11,26,11,11,4.30
2012,11,26,11,12,4.30
2012,11,26,11,13,4.30
2012,11,26,11,14,4.40
2012,11,26,11,15,4.40
2012,11,26,11,16,4.40
2012,11,26,11,17,4.40
2012,11,26,11,18,4.50
2012,11,26,11,19,4.50
2012,11,26,11,20,4.60
2012,11,26,11,21,4.60
2012,11,26,11,22,4.60
2012,11,26,11,23,4.60
2012,11,26,11,24,4.60
2012,11,26,11,25,4.60
2012,11,26,11,26,4.60
2012,11,26,11,27,4.60
2012,11,26,11,28,4.60
2012,11,26,11,29,4.60
2012,11,26,11,30,4.60
2012,11,26,11,31,4.60
2012,11,26,11,32,4.60
2012,11,26,11,33,4.60
2012,11,26,11,34,4.70
2012,11,26,11,35,4.70
2012,11,26,11,36,4.70
2012,11,26,11,37,4.70
2012,11,26,11,38,4.60
2012,11,26,11,39,4.60
2012,11,26,11,40,4.60
2012,11,26,11,41,4.60
2012,11,26,11,42,4.60
2012,11,26,11,43,4.70
2012,11,26,11,44,4.70
2012,11,26,11,45,4.70
2012,11,26,11,46,4.80
2012,11,26,11,47,4.80
2012,11,26,11,48,4.80
2012,11,26,11,49,4.80
2012,11,26,11,50,4.80
2012,11,26,11,51,4.90
2012,11,26,11,52,4.90
2012,11,26,11,53,4.80
2012,11,26,11,54,4.80
2012,11,26,11,55,4.80
2012,11,26,11,56,4.80
2012,11,26,11,57,4.70
2012,11,26,11,58,4.70
2012,11,26,11,59,4.70
2012,11,26,12,00,4.70
2012,11,26,12,01,4.70
2012,11,26,12,02,4.70
2012,11,26,12,03,4.70
2012,11,26,12,04,4.70
2012,11,26,12,05,4.70
2012,11,26,12,06,4.70
2012,11,26,12,07,4.70
2012,11,26,12,08,4.70
2012,11,26,12,09,4.70
2012,11,26,12,10,4.70
2012,11,26,12,11,4.80
2012,11,26,12,12,4.80
2012,11,26,12,13,4.70
2012,11,26,12,14,4.70
2012,11,26,12,15,4.70
2012,11,26,12,16,4.70
2012,11,26,12,17,4.70
2012,11,26,12,18,4.70
2012,11,26,12,19,4.70
2012,11,26,12,20,4.80
2012,11,26,12,21,4.80
2012,11,26,12,22,4.80
2012,11,26,12,23,4.80
2012,11,26,12,24,4.80
2012,11,26,12,25,4.90
2012,11,26,12,26,4.90
2012,11,26,12,27,4.90
2012,11,26,12,28,4.90
2012,11,26,12,29,4.90
2012,11,26,12,30,4.90
2012,11,26,12,31,4.90
2012,11,26,12,32,4.90
2012,11,26,12,33,4.90
2012,11,26,12,34,4.90
2012,11,26,12,35,4.90
2012,11,26,12,36,4.90
2012,11,26,12,37,4.90
2012,11,26,12,38,4.90
2012,11,26,12,39,4.90
2012,11,26,12,40,4.80
2012,11,26,12,41,4.80
2012,11,26,12,42,4.80
2012,11,26,12,43,4.80
2012,11,26,12,44,4.80
2012,11,26,12,45,4.80
2012,11,26,12,46,4.90
2012,11,26,12,47,4.90
2012,11,26,12,48,4.90
2012,11,26,12,49,4.90
2012,11,26,12,50,4.90
2012,11,26,12,51,4.90
2012,11,26,12,52,4.90
2012,11,26,12,53,4.90
2012,11,26,12,54,5.00
2012,11,26,12,55,5.00
2012,11,26,12,56,5.00
2012,11,26,12,57,5.10
2012,11,26,12,58,5.10
2012,11,26,12,59,5.10
2012,11,26,13,00,5.10
2012,11,26,13,01,5.10
2012,11,26,13,02,5.10
2012,11,26,13,03,5.10
2012,11,26,13,04,5.10
2012,11,26,13,05,5.10
2012,11,26,13,06,5.10
2012,11,26,13,07,5.20
2012,11,26,13,08,5.20
2012,11,26,13,09,5.20
2012,11,26,13,10,5.20
2012,11,26,13,11,5.20
2012,11,26,13,12,5.20
2012,11,26,13,13,5.20
2012,11,26,13,14,5.20
2012,11,26,13,15,5.20
2012,11,26,13,16,5.20
2012,11,26,13,17,5.30
2012,11,26,13,18,5.30
2012,11,26,13,19,5.30
2012,11,26,13,20,5.30
2012,11,26,13,21,5.30
2012,11,26,13,22,5.30
2012,11,26,13,23,5.30
2012,11,26,13,24,5.30
2012,11,26,13,25,5.20
2012,11,26,13,26,5.20
2012,11,26,13,27,5.20
2012,11,26,13,28,5.20
2012,11,26,13,29,5.20
2012,11,26,13,30,5.30
2012,11,26,13,31,5.30
2012,11,26,13,32,5.30
2012,11,26,13,33,5.30
2012,11,26,13,34,5.20
2012,11,26,13,35,5.20
2012,11,26,13,36,5.20
2012,11,26,13,37,5.20
2012,11,26,13,38,5.20
2012,11,26,13,39,5.20
2012,11,26,13,40,5.20
2012,11,26,13,41,5.20
2012,11,26,13,42,5.20
2012,11,26,13,43,5.20
2012,11,26,13,44,5.20
2012,11,26,13,45,5.20
2012,11,26,13,46,5.20
2012,11,26,13,47,5.20
2012,11,26,13,48,5.20
2012,11,26,13,49,5.30
2012,11,26,13,50,5.30
2012,11,26,13,51,5.30
2012,11,26,13,52,5.30
2012,11,26,13,53,5.30
2012,11,26,13,54,5.30
2012,11,26,13,55,5.40
2012,11,26,13,56,5.40
2012,11,26,13,57,5.40
2012,11,26,13,58,5.40
2012,11,26,13,59,5.40
2012,11,26,14,00,5.40
2012,11,26,14,01,5.40
2012,11,26,14,02,5.40
2012,11,26,14,03,5.50
2012,11,26,14,04,5.50
2012,11,26,14,05,5.50
2012,11,26,14,06,5.50
2012,11,26,14,07,5.50
2012,11,26,14,08,5.40
2012,11,26,14,09,5.40
2012,11,26,14,10,5.40
2012,11,26,14,11,5.40
2012,11,26,14,12,5.40
2012,11,26,14,13,5.40
2012,11,26,14,14,5.40
2012,11,26,14,15,5.40
2012,11,26,14,16,5.30
2012,11,26,14,17,5.30
2012,11,26,14,18,5.40
2012,11,26,14,19,5.40
2012,11,26,14,20,5.40
2012,11,26,14,21,5.40
2012,11,26,14,22,5.40
2012,11,26,14,23,5.40
2012,11,26,14,24,5.30
2012,11,26,14,25,5.30
2012,11,26,14,26,5.30
2012,11,26,14,27,5.30
2012,11,26,14,28,5.30
2012,11,26,14,29,5.40
2012,11,26,14,30,5.40
2012,11,26,14,31,5.40
2012,11,26,14,32,5.40
2012,11,26,14,33,5.50
2012,11,26,14,34,5.50
2012,11,26,14,35,5.50
2012,11,26,14,36,5.50
2012,11,26,14,37,5.40
2012,11,26,14,38,5.40
2012,11,26,14,39,5.40
2012,11,26,14,40,5.40
2012,11,26,14,41,5.40
2012,11,26,14,42,5.40
2012,11,26,14,43,5.40
2012,11,26,14,44,5.40
2012,11,26,14,45,5.40
2012,11,26,14,46,5.40
2012,11,26,14,47,5.40
2012,11,26,14,48,5.40
2012,11,26,14,49,5.40
2012,11,26,14,50,5.30
2012,11,26,14,51,5.30
2012,11,26,14,52,5.30
2012,11,26,14,53,5.30
2012,11,26,14,54,5.30
2012,11,26,14,55,5.30
2012,11,26,14,56,5.30
2012,11,26,14,57,5.30
2012,11,26,14,58,5.20
2012,11,26,14,59,5.20
2012,11,26,15,00,5.20
2012,11,26,15,01,5.20
2012,11,26,15,02,5.20
2012,11,26,15,03,5.20
2012,11,26,15,04,5.20
2012,11,26,15,05,5.20
2012,11,26,15,06,5.20
2012,11,26,15,07,5.20
2012,11,26,15,08,5.20
2012,11,26,15,09,5.20
2012,11,26,15,10,5.20
2012,11,26,15,11,5.20
2012,11,26,15,12,5.20
2012,11,26,15,13,5.20
2012,11,26,15,14,5.20
2012,11,26,15,15,5.20
2012,11,26,15,16,5.20
2012,11,26,15,17,5.20
2012,11,26,15,18,5.20
2012,11,26,15,19,5.20
2012,11,26,15,20,5.20
2012,11,26,15,21,5.10
2012,11,26,15,22,5.10
2012,11,26,15,23,5.10
2012,11,26,15,24,5.00
2012,11,26,15,25,5.00
2012,11,26,15,26,4.90
2012,11,26,15,27,4.90
2012,11,26,15,28,4.80
2012,11,26,15,29,4.80
2012,11,26,15,30,4.80
2012,11,26,15,31,4.80
2012,11,26,15,32,4.70
2012,11,26,15,33,4.70
2012,11,26,15,34,4.70
2012,11,26,15,35,4.60
2012,11,26,15,36,4.60
2012,11,26,15,37,4.60
2012,11,26,15,38,4.50
2012,11,26,15,39,4.50
2012,11,26,15,40,4.40
2012,11,26,15,41,4.40
2012,11,26,15,42,4.30
2012,11,26,15,43,4.30
2012,11,26,15,44,4.30
2012,11,26,15,45,4.20
2012,11,26,15,46,4.20
2012,11,26,15,47,4.10
2012,11,26,15,48,4.10
2012,11,26,15,49,4.00
2012,11,26,15,50,4.00
2012,11,26,15,51,3.90
2012,11,26,15,52,3.90
2012,11,26,15,53,3.80
2012,11,26,15,54,3.80
2012,11,26,15,55,3.70
2012,11,26,15,56,3.70
2012,11,26,15,57,3.70
2012,11,26,15,58,3.70
2012,11,26,15,59,3.60
2012,11,26,16,00,3.60
2012,11,26,16,01,3.60
2012,11,26,16,02,3.50
2012,11,26,16,03,3.50
2012,11,26,16,04,3.40
2012,11,26,16,05,3.40
2012,11,26,16,06,3.40
2012,11,26,16,07,3.30
2012,11,26,16,08,3.30
2012,11,26,16,09,3.30
2012,11,26,16,10,3.20
2012,11,26,16,11,3.20
2012,11,26,16,12,3.20
2012,11,26,16,13,3.10
2012,11,26,16,14,3.10
2012,11,26,16,15,3.10
2012,11,26,16,16,3.10
2012,11,26,16,17,3.00
2012,11,26,16,18,3.00
2012,11,26,16,19,2.90
2012,11,26,16,20,2.90
2012,11,26,16,21,2.90
2012,11,26,16,22,2.90
2012,11,26,16,23,2.80
2012,11,26,16,24,2.80
2012,11,26,16,25,2.80
2012,11,26,16,26,2.80
2012,11,26,16,27,2.70
2012,11,26,16,28,2.70
2012,11,26,16,29,2.70
2012,11,26,16,30,2.70
2012,11,26,16,31,2.60
2012,11,26,16,32,2.60
2012,11,26,16,33,2.60
2012,11,26,16,34,2.60
2012,11,26,16,35,2.50
2012,11,26,16,36,2.50
2012,11,26,16,37,2.40
2012,11,26,16,38,2.40
2012,11,26,16,39,2.40
2012,11,26,16,40,2.40
2012,11,26,16,41,2.30
2012,11,26,16,42,2.30
2012,11,26,16,43,2.30
2012,11,26,16,44,2.30
2012,11,26,16,45,2.30
2012,11,26,16,46,2.30
2012,11,26,16,47,2.20
2012,11,26,16,48,2.20
2012,11,26,16,49,2.20
2012,11,26,16,50,2.20
2012,11,26,16,51,2.20
2012,11,26,16,52,2.20
2012,11,26,16,53,2.20
2012,11,26,16,54,2.10
2012,11,26,16,55,2.10
2012,11,26,16,56,2.10
2012,11,26,16,57,2.10
2012,11,26,16,58,2.00
2012,11,26,16,59,2.00
2012,11,26,17,00,2.00
2012,11,26,17,01,2.00
2012,11,26,17,02,1.90
2012,11,26,17,03,1.90
2012,11,26,17,04,1.90
2012,11,26,17,05,1.90
2012,11,26,17,06,1.90
2012,11,26,17,07,1.90
2012,11,26,17,08,1.90
2012,11,26,17,09,1.90
2012,11,26,17,10,1.80
2012,11,26,17,11,1.80
2012,11,26,17,12,1.80
2012,11,26,17,13,1.80
2012,11,26,17,14,1.80
2012,11,26,17,15,1.80
2012,11,26,17,16,1.80
2012,11,26,17,17,1.80
2012,11,26,17,18,1.80
2012,11,26,17,19,1.80
2012,11,26,17,20,1.80
2012,11,26,17,21,1.80
2012,11,26,17,22,1.80
2012,11,26,17,23,1.80
2012,11,26,17,24,1.80
2012,11,26,17,25,1.80
2012,11,26,17,26,1.70
2012,11,26,17,27,1.70
2012,11,26,17,28,1.70
2012,11,26,17,29,1.70
2012,11,26,17,30,1.70
2012,11,26,17,31,1.70
2012,11,26,17,32,1.70
2012,11,26,17,33,1.60
2012,11,26,17,34,1.60
2012,11,26,17,35,1.60
2012,11,26,17,36,1.60
2012,11,26,17,37,1.60
2012,11,26,17,38,1.60
2012,11,26,17,39,1.60
2012,11,26,17,40,1.60
2012,11,26,17,41,1.60
2012,11,26,17,42,1.60
2012,11,26,17,43,1.60
2012,11,26,17,44,1.60
2012,11,26,17,45,1.70
2012,11,26,17,46,1.60
2012,11,26,17,47,1.60
2012,11,26,17,48,1.60
2012,11,26,17,49,1.60
2012,11,26,17,50,1.60
2012,11,26,17,51,1.60
2012,11,26,17,52,1.60
2012,11,26,17,53,1.60
2012,11,26,17,54,1.60
2012,11,26,17,55,1.60
2012,11,26,17,56,1.60
2012,11,26,17,57,1.60
2012,11,26,17,58,1.60
2012,11,26,17,59,1.70
2012,11,26,18,00,1.60
2012,11,26,18,01,1.60
2012,11,26,18,02,1.70
2012,11,26,18,03,1.70
2012,11,26,18,04,1.70
2012,11,26,18,05,1.70
2012,11,26,18,06,1.70